Indian Springs, NV

6:49 PM PST on December 07, 2019 (GMT -0800)
Indian Springs Air Force Auxiliary

Weather History for KINS - November, 2019

Change the Weather History Date:

Wednesday, November 13, 2019

  Actual Average (KDRA) Record (KDRA)
Temperature  
Mean Temperature 56 °F -  
Max Temperature 74 °F 61 °F 82 °F (1999)
Min Temperature 38 °F 39 °F 22 °F (2000)
Degree Days  
Heating Degree Days 9    
Growing Degree Days 6 (Base 50)    
Moisture  
Dew Point 16 °F    
Average Humidity 23    
Maximum Humidity 35    
Minimum Humidity 12    
Precipitation  
Precipitation 0.00 in - - ()
Sea Level Pressure  
Sea Level Pressure 29.98 in    
Wind  
Wind Speed 1 mph ()    
Max Wind Speed 7 mph    
Max Gust Speed -    
Visibility 10.0 miles    
Events      
Averages and records for this station are not official NWS values.
T = Trace of Precipitation, MM = Missing Value Source: Averaged Metar Reports

Daily Weather History Graph

Daily Weather History Graph

Search for Another Location

Airport or City:

Astronomy

Nov. 13, 2019 Rise Set
Actual Time 6:18 AM PST 4:35 PM PST
Civil Twilight 5:50 AM PST 5:02 PM PST
Nautical Twilight 5:19 AM PST 5:33 PM PST
Astronomical Twilight 4:49 AM PST 6:04 PM PST
Moon 5:42 PM PST (11/13) 7:15 AM PST (11/13)
Length of Visible Light 11h 11m
Length of Day
10h 17m
Full, 98% of the Moon is Illuminated
Nov 13
Full
Nov 19
Last Quarter
Nov 26
New
Dec 3
First Quarter
Dec 11
Full

Hourly Weather History & Observations

Time (PST) Temp. Windchill Dew Point Humidity Pressure Visibility Wind Dir Wind Speed Gust Speed Precip Events Conditions
12:58 AM 43.5 °F - 12.6 °F 29% 30.00 in 10.0 mi Calm Calm - N/A   Clear
1:58 AM 42.6 °F 40.9 °F 12.6 °F 30% 30.00 in 10.0 mi West 3.5 mph - N/A   Clear
2:58 AM 41.2 °F 38.2 °F 13.5 °F 32% 30.00 in 10.0 mi NW 4.6 mph - N/A   Clear
3:58 AM 38.5 °F - 11.8 °F 34% 30.00 in 10.0 mi Calm Calm - N/A   Clear
4:58 AM 38.3 °F 34.8 °F 11.7 °F 34% 30.01 in 10.0 mi West 4.6 mph - N/A   Clear
5:58 AM 39.0 °F 36.8 °F 12.9 °F 34% 30.01 in 10.0 mi WNW 3.5 mph - N/A   Clear
6:58 AM 38.7 °F - 12.7 °F 35% 30.03 in 10.0 mi Calm Calm - N/A   Clear
7:58 AM 45.5 °F 44.2 °F 15.1 °F 29% 30.05 in 10.0 mi West 3.5 mph - N/A   Clear
8:58 AM 52.9 °F - 15.1 °F 22% 30.04 in 10.0 mi Calm Calm - N/A   Clear
9:58 AM 58.5 °F - 16.3 °F 19% 30.04 in 10.0 mi Calm Calm - N/A   Clear
10:58 AM 64.6 °F - 15.8 °F 15% 30.01 in 10.0 mi Calm Calm - N/A   Clear
11:57 AM 69.8 °F - 15.8 °F 13% 29.96 in 10.0 mi Calm Calm - N/A   Clear
11:58 AM 69.6 °F - 16.5 °F 13% 29.96 in 10.0 mi Calm Calm - N/A   Clear
12:58 PM 71.4 °F - 16.2 °F 12% 29.94 in - Calm Calm - N/A   Unknown
1:58 PM 74.1 °F - 18.3 °F 12% 29.92 in 10.0 mi Calm Calm - N/A   Scattered Clouds
2:58 PM 73.0 °F - 17.4 °F 12% 29.91 in 10.0 mi Calm Calm - N/A   Clear
3:58 PM 70.0 °F - 16.9 °F 13% 29.92 in 10.0 mi Calm Calm - N/A   Clear
4:58 PM 66.7 °F - 19.0 °F 16% 29.94 in 10.0 mi ESE 6.9 mph - N/A   Clear
5:58 PM 64.9 °F - 19.0 °F 17% 29.96 in 10.0 mi Calm Calm - N/A   Clear
6:58 PM 60.1 °F - 18.9 °F 20% 29.98 in 10.0 mi SW 3.5 mph - N/A   Clear
7:58 PM 56.8 °F - 16.2 °F 20% 29.97 in 10.0 mi Calm Calm - N/A   Clear
8:58 PM 50.2 °F - 13.8 °F 23% 29.98 in 10.0 mi West 4.6 mph - N/A   Clear
9:58 PM 46.8 °F - 17.8 °F 32% 29.99 in 10.0 mi Calm Calm - N/A   Clear
10:58 PM 48.6 °F - 16.9 °F 28% 29.98 in 10.0 mi Calm Calm - N/A   Clear
11:58 PM 47.1 °F - 15.6 °F 28% 29.98 in 10.0 mi Calm Calm - N/A   Clear